Home > Weather > Waterford > Past weeks

Flag for Ireland Weather for the Past 2 Weeks in Waterford, Ireland

Now
34 °F

Passing clouds.


Feels Like: 26 °F
Forecast: N/A
Wind: 9 mph from North

Location: Cork Airport

Current Time: Feb 14, 2016 at 9:37:44 PM

Latest Report: Feb 14, 2016 at 9:00 PM


Visibility: N/A

Pressure: 30.04 "Hg

Humidity: 100%

Dew point: 34 °F

Location of WaterfordLocation

Historic Weather in Waterford — Graph

°F

Waterford Temperature Yesterday

Maximum temperature yesterday: 43 °F (at 2:00 PM)
Minimum temperature yesterday: 37 °F (at 10:30 PM)
Average temperature yesterday: 40 °F

High & Low Weather Summary for the Past Weeks

 TemperatureHumidityPressure
High54 °F (Jan 31, 7:00 AM)100% (Jan 31, 2:00 AM)30.42 "Hg (Jan 31, 2:00 AM)
Low32 °F (Feb 9, 3:00 AM)61% (Feb 3, 2:00 PM)28.80 "Hg (Feb 8, 3:00 AM)
Average42 °F90%29.55 "Hg
* Reported Jan 30 8:00 PM — Feb 14 8:30 PM, Waterford, Weather by CustomWeather, © 2016

Note: Actual official high and low records may vary slightly from our data, if they occured in-between our weather recording intervals... More about our weather records

Advertising

Waterford Weather History for the Previous 24 Hours

 ConditionsComfort  
Time TempWeatherWind HumidityBarometerVisibility
8:30 PM
Sun, Feb 14
34 °FPassing clouds.10 mph100%30.04 "HgN/A
8:00 PM34 °FPassing clouds.9 mph100%30.01 "HgN/A
7:30 PM34 °FPassing clouds.8 mph100%29.98 "HgN/A
7:00 PM36 °FPassing clouds.13 mph93%29.95 "HgN/A
6:30 PM36 °FSprinkles. Passing clouds.16 mph93%29.92 "HgN/A
6:00 PM37 °FPartly cloudy.13 mph81%29.89 "HgN/A
5:30 PM39 °FBroken clouds.16 mph75%29.86 "HgN/A
5:00 PM41 °FScattered clouds.14 mph70%29.83 "HgN/A
4:30 PM41 °FScattered clouds.15 mph76%29.80 "HgN/A
4:00 PM41 °FScattered clouds.20 mph70%29.77 "HgN/A
3:30 PM43 °FScattered clouds.16 mph71%29.74 "HgN/A
3:00 PM43 °FScattered clouds.17 mph71%29.71 "HgN/A
2:30 PM41 °FScattered clouds.17 mph70%29.68 "HgN/A
2:00 PM43 °FScattered clouds.15 mph71%29.65 "HgN/A
1:30 PM41 °FScattered clouds.18 mph76%29.62 "HgN/A
1:00 PM39 °FScattered clouds.15 mph87%29.59 "HgN/A
12:30 PM41 °FBroken clouds.17 mph87%29.59 "HgN/A
12:00 PM39 °FPartly sunny.16 mph87%29.56 "HgN/A
11:30 AM39 °FBroken clouds.18 mph87%29.53 "HgN/A
11:00 AM39 °FPartly sunny.15 mph87%29.50 "HgN/A
10:30 AM39 °FBroken clouds.16 mph87%29.47 "HgN/A
10:00 AM39 °FBroken clouds.15 mph87%29.45 "HgN/A
9:30 AM37 °FPartly sunny.14 mph100%29.42 "HgN/A
9:00 AM37 °FPartly sunny.14 mph93%29.39 "HgN/A
8:30 AM37 °FPartly sunny.14 mph93%29.36 "HgN/A
8:00 AM39 °FDrizzle. Partly sunny.17 mph93%29.33 "HgN/A
7:30 AM39 °FPassing clouds.16 mph93%29.30 "HgN/A
7:00 AM39 °FPassing clouds.16 mph93%29.27 "HgN/A
6:30 AM39 °FPassing clouds.18 mph93%29.24 "HgN/A
6:00 AM39 °FPassing clouds.18 mph93%29.21 "HgN/A
5:30 AM39 °FPassing clouds.20 mph93%29.18 "HgN/A
5:00 AM39 °FPassing clouds.17 mph93%29.18 "HgN/A
4:30 AM37 °FLight rain. Passing clouds.17 mph100%29.15 "HgN/A
4:00 AM39 °FPassing clouds.15 mph93%29.15 "HgN/A
3:30 AM39 °FPassing clouds.16 mph100%29.12 "HgN/A
3:00 AM39 °FPassing clouds.17 mph93%29.12 "HgN/A
2:30 AM39 °FPassing clouds.17 mph100%29.12 "HgN/A
2:00 AM39 °FPassing clouds.14 mph100%29.09 "HgN/A
1:30 AM39 °FPassing clouds.14 mph100%29.09 "HgN/A
1:00 AM39 °FLight rain. Passing clouds.14 mph100%29.09 "Hg5 mi
12:30 AM39 °FLight rain. Passing clouds.6 mph100%29.09 "HgN/A
12:00 AM39 °FPassing clouds.7 mph93%29.09 "HgN/A
11:30 PM
Sat, Feb 13
37 °FLight rain. Passing clouds.7 mph100%29.09 "HgN/A
11:00 PM37 °FPassing clouds.7 mph100%29.09 "HgN/A
10:30 PM37 °FLight rain. Partly cloudy.7 mph100%29.09 "Hg6 mi
9:30 PM39 °FLight rain. Passing clouds.6 mph93%29.09 "HgN/A
9:00 PM39 °FLight rain. Passing clouds.6 mph100%29.09 "HgN/A
Weather by CustomWeather, © 2016

See weather overviewHow to use our weather pages